Regional Weather Roundup
Issued by NWS

Home | Current Version | Previous Version | Graphics & Text | Print | Product List | Glossary On
Versions: 1 2 3 4 5 6 7 8 9 10 11 12 13 14 15 16 17 18 19 20 21 22 23 24 25 26 27 28 29 30 31 32 33 34 35 36 37 38 39 40 41 42 43 44 45 46 47 48 49 50
000
ASUS43 KBIS 240520
RWRND

NORTH DAKOTA REGIONAL WEATHER ROUNDUP
NATIONAL WEATHER SERVICE BISMARCK ND
1200 AM CDT FRI OCT 24 2014

NOTE: "FAIR" INDICATES FEW OR NO CLOUDS BELOW 12,000 FEET WITH NO
SIGNIFICANT WEATHER AND/OR OBSTRUCTIONS TO VISIBILITY.


NDZ001>003-009>011-017-240600-
NORTHWEST NORTH DAKOTA

CITY           SKY/WX    TMP DP  RH WIND       PRES   REMARKS
WILLISTON      CLOUDY    44  35  70 CALM      29.78R
MINOT          CLOUDY    56  32  40 SW12      29.75R
MINOT AFB      MOCLDY    51  35  54 SW9       29.73S
$$

NDZ018>021-031>035-040>046-240600-
SOUTHWEST NORTH DAKOTA

CITY           SKY/WX    TMP DP  RH WIND       PRES   REMARKS
BISMARCK       CLOUDY    50  32  50 W5        29.82S
DICKINSON      CLOUDY    56  31  38 SW14      29.82R
GARRISON         N/A     49  35  58 CALM      29.78S
HETTINGER ARPT CLOUDY    46  28  49 N3        29.87S
$$

NDZ004>008-012>016-024-026-027-054-240600-
NORTHEAST NORTH DAKOTA

CITY           SKY/WX    TMP DP  RH WIND       PRES   REMARKS
GRAND FORKS    CLOUDY    46  39  76 S8        29.75F
GRND FRKS AFB  CLOUDY    52  38  60 S8        29.75F
DEVILS LAKE    MOCLDY    52  36  54 SW10      29.75R
$$

NDZ022-023-025-028>030-036>039-047>053-240600-
SOUTHEAST NORTH DAKOTA

CITY           SKY/WX    TMP DP  RH WIND       PRES   REMARKS
FARGO          CLOUDY    53  41  63 S10       29.81F
JAMESTOWN      PTCLDY    50  36  58 S9        29.80F
$$




USA.gov is the U.S. government's official web portal to all federal, state and local government web resources and services.